Location: Hokitika
(42.7170°S, 170.9670°E)
Time: 06:26:40
(UTC+12:00)

ISS - Visible Passes

Search period start: 15 August 2020 00:00
Search period end: 25 August 2020 00:00
Orbit: 418 x 420 km, 51.6° (Epoch: 15 August)

Date Brightness Start Highest point End Pass type
(mag) Time Alt. Az. Time Alt. Az. Time Alt. Az.
18 Aug -1.8 19:16:07 10° N 19:17:53 17° NE 19:17:53 17° NE visible
19 Aug -1.4 18:30:30 10° NE 18:31:04 10° NE 18:31:37 10° ENE visible
19 Aug -2.1 20:03:54 10° NW 20:05:48 31° NW 20:05:48 31° NW visible
20 Aug -3.4 19:16:27 10° NW 19:19:44 47° NE 19:20:37 37° E visible
20 Aug -0.1 20:53:32 10° W 20:53:36 10° W 20:53:36 10° W visible
21 Aug -2.5 18:29:14 10° NNW 18:32:13 28° NE 18:35:13 10° ESE visible
21 Aug -2.3 20:05:37 10° W 20:08:17 38° WSW 20:08:17 38° WSW visible
22 Aug -3.4 19:17:49 10° WNW 19:21:13 65° SSW 19:22:52 27° SE visible
22 Aug -0.1 20:55:47 10° WSW 20:55:50 10° WSW 20:55:50 10° WSW visible
23 Aug -3.7 18:30:08 10° NW 18:33:33 79° NE 18:37:00 10° ESE visible
23 Aug -1.8 20:07:44 10° WSW 20:10:20 25° SSW 20:10:20 25° SSW visible
24 Aug -2.3 19:19:42 10° W 19:22:50 32° SSW 19:24:45 18° SSE visible
